DW7281 Weather Reports


Display with metric or nautical units.
time (UTC)temp
F
wind
direction
speed
MPH
gust
MPH
rain 1hr
in
rain 24hr
in
rain mn
in
humidity
%
barometer
mb
20260507003040 64 216 6.0 14.0 0.00 0.21 0.00 58 1021.6
20260507001554 63 167 5.0 15.0 0.00 0.21 0.00 61 1021.8
20260507000049 62 151 7.0 17.0 0.00 0.21 0.00 62 1021.8
20260506234547 61 192 6.0 18.0 0.00 0.21 0.00 64 1021.9
20260506233045 61 163 8.0 17.0 0.00 0.21 0.00 62 1022.0
20260506231602 61 172 3.0 15.0 0.00 0.21 0.00 65 1021.9
20260506224550 61 162 4.0 11.0 0.00 0.21 0.00 67 1021.8
20260506223049 59 148 3.0 12.0 0.00 0.21 0.00 69 1021.8
20260506221605 58 157 3.0 9.0 0.00 0.21 0.00 72 1021.8
20260506220100 56 181 3.0 9.0 0.00 0.21 0.00 78 1021.5
20260506214547 55 168 3.0 9.0 0.00 0.21 0.00 80 1021.4
20260506213105 55 0 0.0 7.0 0.00 0.21 0.00 83 1021.3
20260506211548 53 167 2.0 8.0 0.00 0.21 0.00 90 1021.2
20260506210055 51 174 2.0 7.0 0.00 0.21 0.00 93 1021.2
20260506204545 52 164 3.0 9.0 0.00 0.21 0.00 93 1021.1
20260506203044 54 182 4.0 10.0 0.00 0.21 0.00 93 1020.9
20260506201548 56 0 1.0 7.0 0.00 0.21 0.00 93 1020.7
20260506200051 57 0 0.0 6.0 0.00 0.21 0.00 94 1020.6
20260506194550 58 163 1.0 7.0 0.00 0.21 0.00 94 1020.6
20260506193047 58 196 2.0 5.0 0.00 0.21 0.00 94 1020.5
20260506191550 58 185 1.0 5.0 0.00 0.21 0.00 94 1020.3
20260506190044 58 0 1.0 5.0 0.00 0.21 0.00 94 1020.1
20260506184556 58 0 0.0 5.0 0.00 0.21 0.00 94 1020.2
20260506183048 58 0 0.0 6.0 0.00 0.20 0.00 94 1020.1
20260506181546 58 0 0.0 5.0 0.00 0.20 0.00 94 1020.2
20260506180047 57 197 2.0 6.0 0.00 0.20 0.00 93 1020.3
20260506174549 57 0 0.0 0.0 0.00 0.20 0.00 93 1019.9
20260506173049 57 0 0.0 0.0 0.00 0.20 0.00 93 1019.9
20260506171600 57 0 0.0 0.0 0.00 0.20 0.00 93 1020.1
20260506170056 58 0 0.0 0.0 0.00 0.20 0.00 93 1020.0
20260506164548 59 0 0.0 0.0 0.00 0.20 0.00 93 1020.3
20260506163048 59 0 0.0 0.0 0.00 0.20 0.00 93 1020.3
20260506161546 59 0 0.0 0.0 0.00 0.20 0.00 93 1020.5
20260506160059 59 0 0.0 0.0 0.00 0.20 0.00 93 1020.8
20260506154543 59 0 0.0 0.0 0.00 0.20 0.00 93 1020.6
20260506153047 59 0 0.0 4.0 0.00 0.20 0.00 93 1020.7
20260506151547 60 0 0.0 3.0 0.00 0.20 0.00 93 1020.9
20260506150053 60 23 0.0 0.0 0.00 0.20 0.00 93 1021.0
20260506144559 60 0 0.0 5.0 0.00 0.20 0.00 92 1021.0
20260506143051 60 0 0.0 5.0 0.00 0.20 0.00 92 1021.0
20260506141549 60 26 0.0 7.0 0.00 0.20 0.00 92 1021.0
20260506140050 60 0 0.0 4.0 0.00 0.20 0.00 92 1021.1
20260506134546 60 0 0.0 5.0 0.00 0.20 0.20 92 1021.3
20260506133044 60 0 0.0 9.0 0.03 0.20 0.20 92 1021.2
20260506131552 60 46 2.0 8.0 0.06 0.20 0.20 92 1021.4
20260506130046 60 51 1.0 8.0 0.08 0.20 0.20 92 1021.6
20260506124540 60 0 1.0 6.0 0.07 0.19 0.19 91 1021.6
20260506123052 60 0 1.0 8.0 0.05 0.17 0.17 91 1021.8
20260506121557 60 0 0.0 5.0 0.01 0.13 0.13 91 1022.2
20260506120053 60 15 2.0 9.0 0.00 0.11 0.11 91 1022.0
20260506114553 61 0 2.0 10.0 0.00 0.11 0.11 91 1022.0
20260506113046 61 32 1.0 7.0 0.00 0.11 0.11 91 1022.0
20260506111548 61 0 1.0 8.0 0.00 0.11 0.11 91 1021.9
20260506110046 61 55 1.0 7.0 0.00 0.11 0.11 91 1021.9
20260506104546 61 23 1.0 10.0 0.00 0.11 0.11 91 1021.8
20260506103052 61 33 1.0 7.0 0.00 0.11 0.11 91 1021.9
20260506101549 61 0 2.0 7.0 0.00 0.11 0.11 91 1022.0
20260506100103 61 344 1.0 6.0 0.00 0.11 0.11 91 1022.0
20260506094549 61 15 2.0 8.0 0.00 0.11 0.11 90 1021.8
20260506093048 62 34 1.0 5.0 0.00 0.11 0.11 90 1021.6
20260506091553 62 51 1.0 8.0 0.00 0.11 0.11 90 1021.6
20260506090048 62 47 2.0 6.0 0.00 0.11 0.11 90 1021.5
20260506084548 63 16 0.0 6.0 0.00 0.11 0.11 89 1021.4
20260506083050 63 20 0.0 6.0 0.05 0.11 0.11 89 1021.2
20260506081551 63 34 1.0 5.0 0.08 0.11 0.11 88 1020.8
20260506073046 64 0 0.0 4.0 0.06 0.06 0.06 84 1020.3
20260506071556 65 0 0.0 5.0 0.02 0.02 0.02 82 1020.3
20260506061545 69 23 0.0 6.0 0.00 0.00 0.00 72 1020.1
20260506044550 72 0 0.0 4.0 0.00 0.00 0.00 68 1019.9
20260506043047 72 0 0.0 6.0 0.00 0.00 0.00 68 1020.1
20260506041553 73 352 3.0 10.0 0.00 0.00 0.00 68 1020.1
20260506040055 72 0 0.0 7.0 0.00 0.00 0.00 67 1020.2
20260506034550 72 24 1.0 6.0 0.00 0.00 0.00 67 1020.3
20260506033045 73 15 0.0 11.0 0.00 0.00 0.00 67 1020.4
20260506031547 72 0 0.0 8.0 0.00 0.00 0.00 69 1020.5
20260506024600 72 303 2.0 9.0 0.00 0.00 0.00 72 1020.8
20260506023053 71 0 0.0 7.0 0.00 0.00 0.00 70 1021.1
20260506021559 69 0 1.0 5.0 0.00 0.00 0.00 76 1021.6
20260506020048 69 51 2.0 6.0 0.00 0.00 0.00 75 1021.5
20260506014557 70 0 1.0 7.0 0.00 0.00 0.00 74 1021.7
20260506013054 71 0 2.0 8.0 0.00 0.00 0.00 72 1021.7
20260506011548 71 0 2.0 6.0 0.00 0.00 0.00 73 1021.9
20260506010056 69 38 2.0 9.0 0.00 0.00 0.00 76 1022.0
20260506004551 68 34 0.0 7.0 0.00 0.00 0.00 78 1022.3